TimeEST,TemperatureF,Dew PointF,Humidity,Sea Level PressureIn,VisibilityMPH,Wind Direction,Wind SpeedMPH,Gust SpeedMPH,PrecipitationIn,Events,Conditions,WindDirDegrees,DateUTC
12:51 AM,-2.9,-15.0,56,30.13,10.0,WNW,9.2,-,N/A,,Clear,300,2013-01-24 05:51:00
1:51 AM,-2.9,-16.1,54,30.13,10.0,WNW,6.9,-,N/A,,Clear,300,2013-01-24 06:51:00
2:51 AM,-2.9,-16.1,54,30.12,10.0,NNW,8.1,-,N/A,,Clear,330,2013-01-24 07:51:00
3:51 AM,-4.0,-17.0,54,30.12,10.0,NW,9.2,-,N/A,,Clear,310,2013-01-24 08:51:00
4:51 AM,-5.1,-17.0,57,30.11,10.0,NW,5.8,-,N/A,,Clear,320,2013-01-24 09:51:00
5:51 AM,-4.0,-17.0,54,30.11,10.0,NW,8.1,-,N/A,,Clear,320,2013-01-24 10:51:00
6:51 AM,-4.0,-18.4,50,30.09,10.0,NW,8.1,-,N/A,,Clear,320,2013-01-24 11:51:00
7:51 AM,-2.0,-18.0,47,30.13,10.0,NW,10.4,23.0,N/A,,Clear,310,2013-01-24 12:51:00
8:51 AM,1.0,-17.0,43,30.14,10.0,NW,13.8,26.5,N/A,,Clear,310,2013-01-24 13:51:00
9:51 AM,3.0,-16.1,41,30.14,10.0,NW,23.0,32.2,N/A,,Mostly Cloudy,310,2013-01-24 14:51:00
10:51 AM,5.0,-15.0,39,30.14,10.0,NW,21.9,34.5,N/A,,Overcast,310,2013-01-24 15:51:00
11:51 AM,8.1,-13.0,38,30.11,10.0,NW,21.9,28.8,N/A,,Overcast,310,2013-01-24 16:51:00
12:51 PM,10.0,-11.0,38,30.09,10.0,NW,19.6,26.5,N/A,,Mostly Cloudy,320,2013-01-24 17:51:00
1:51 PM,12.9,-11.0,34,30.06,10.0,WNW,25.3,32.2,N/A,,Clear,300,2013-01-24 18:51:00
2:51 PM,12.9,-11.9,32,30.07,10.0,NW,19.6,29.9,N/A,,Clear,320,2013-01-24 19:51:00
3:51 PM,12.9,-13.0,31,30.08,10.0,WNW,15.0,26.5,N/A,,Clear,300,2013-01-24 20:51:00
4:51 PM,10.9,-13.0,33,30.09,10.0,WNW,17.3,33.4,N/A,,Clear,290,2013-01-24 21:51:00
5:51 PM,10.9,-13.0,33,30.11,10.0,WNW,13.8,24.2,N/A,,Clear,300,2013-01-24 22:51:00
6:51 PM,10.0,-13.0,35,30.14,10.0,WNW,12.7,29.9,N/A,,Clear,300,2013-01-24 23:51:00
7:51 PM,9.0,-11.9,38,30.15,10.0,WNW,18.4,24.2,N/A,,Clear,300,2013-01-25 00:51:00
8:51 PM,8.1,-11.9,40,30.16,10.0,WNW,17.3,29.9,N/A,,Clear,290,2013-01-25 01:51:00
9:51 PM,7.0,-11.0,44,30.20,10.0,NW,12.7,20.7,N/A,,Clear,310,2013-01-25 02:51:00
10:51 PM,7.0,-11.0,44,30.21,10.0,NW,20.7,32.2,N/A,,Clear,310,2013-01-25 03:51:00
11:51 PM,6.1,-9.0,50,30.22,10.0,NW,10.4,31.1,N/A,,Clear,320,2013-01-25 04:51:00